Location: Tierra Monte Subdivision
(35.2092°N, 106.4864°W)
Time: 07:23:46
(UTC+00:00)

CZ-2C R/B - Visible Passes

Search period start: 11 August 2020 00:00
Search period end: 21 August 2020 00:00
Orbit: 667 x 785 km, 98.2° (Epoch: 10 August)

Date Brightness Start Highest point End Pass type
(mag) Time Alt. Az. Time Alt. Az. Time Alt. Az.
11 Aug 2.3 11:04:10 10° NNE 11:08:47 82° ESE 11:13:28 10° S visible
12 Aug 4.3 10:16:50 10° NE 10:20:33 24° E 10:24:18 10° SSE visible
12 Aug 3.3 11:54:48 10° NNW 11:58:43 28° WNW 12:02:41 10° SW visible
13 Aug 2.3 11:06:08 10° NNE 11:10:46 86° E 11:15:29 10° SSW visible
14 Aug 4.3 10:18:43 10° NE 10:22:33 25° E 10:26:25 10° SSE visible
14 Aug 3.4 11:56:50 10° NNW 12:00:41 27° WNW 12:04:37 10° SW visible
15 Aug 2.2 11:08:06 10° NNE 11:12:45 90° WNW 11:17:30 10° SSW visible
16 Aug 4.2 10:20:37 10° NE 10:24:33 26° E 10:28:32 10° SSE visible
16 Aug 3.4 11:58:50 10° NNW 12:02:39 26° WNW 12:06:32 10° SW visible
17 Aug 2.2 11:10:04 10° N 11:14:44 85° WNW 11:19:31 10° SSW visible
18 Aug 4.1 10:22:31 10° NE 10:26:33 28° E 10:30:38 10° SSE visible
18 Aug 3.5 12:00:52 10° NNW 12:04:38 25° WNW 12:08:27 10° WSW visible
19 Aug 2.2 11:12:01 10° N 11:16:43 81° WNW 11:21:32 10° SSW visible
20 Aug 4.0 10:24:25 10° NE 10:28:33 30° E 10:32:45 10° SSE visible
